Location: Unspecified
(0.0000°N, 0.0000°E)
Time: 09:02:39
(UTC+00:00)

deb r/b Ablestar - Pass Details

Date: 20 February 2026
Orbit: 902 x 2195 km, 67.6° (Epoch: 14 March)

Event Time Altitude Azimuth Distance (km) Brightness Sun altitude
Rises 18:42:42 0° 198° (SSW) 4,810 ? -7.1°
Reaches altitude 10° 18:46:04 10° 198° (SSW) 3,632 ? -8.0°
Maximum altitude 18:54:40 87° 109° (ESE) 1,205 ? -10.1°
Drops below altitude 10° 19:01:13 10° 20° (NNE) 2,809 ? -11.7°
Sets 19:03:31 0° 20° (NNE) 3,667 ? -12.2°
